Year,Month,Day,Hour,Minute,Value (Times are PST for windspeed in km/hr)
2018,01,22,00,00,0.00
2018,01,22,00,01,0.00
2018,01,22,00,02,0.00
2018,01,22,00,03,0.00
2018,01,22,00,04,0.00
2018,01,22,00,05,0.00
2018,01,22,00,06,0.00
2018,01,22,00,07,0.00
2018,01,22,00,08,0.00
2018,01,22,00,09,0.00
2018,01,22,00,10,0.00
2018,01,22,00,11,0.00
2018,01,22,00,12,0.00
2018,01,22,00,13,0.00
2018,01,22,00,14,0.00
2018,01,22,00,15,0.00
2018,01,22,00,16,0.00
2018,01,22,00,17,2.60
2018,01,22,00,18,4.20
2018,01,22,00,19,1.10
2018,01,22,00,20,0.10
2018,01,22,00,21,0.00
2018,01,22,00,22,0.00
2018,01,22,00,23,0.00
2018,01,22,00,24,0.00
2018,01,22,00,25,0.00
2018,01,22,00,26,0.00
2018,01,22,00,27,0.00
2018,01,22,00,28,0.00
2018,01,22,00,29,0.00
2018,01,22,00,30,0.00
2018,01,22,00,31,0.00
2018,01,22,00,32,0.00
2018,01,22,00,33,0.00
2018,01,22,00,34,0.00
2018,01,22,00,35,0.00
2018,01,22,00,36,0.00
2018,01,22,00,37,0.00
2018,01,22,00,38,0.00
2018,01,22,00,39,0.00
2018,01,22,00,40,0.00
2018,01,22,00,41,0.00
2018,01,22,00,42,2.20
2018,01,22,00,43,3.50
2018,01,22,00,44,2.40
2018,01,22,00,45,1.60
2018,01,22,00,46,1.30
2018,01,22,00,47,0.00
2018,01,22,00,48,0.40
2018,01,22,00,49,2.20
2018,01,22,00,50,3.50
2018,01,22,00,51,3.10
2018,01,22,00,52,3.50
2018,01,22,00,53,4.10
2018,01,22,00,54,4.00
2018,01,22,00,55,3.20
2018,01,22,00,56,2.70
2018,01,22,00,57,1.30
2018,01,22,00,58,1.00
2018,01,22,00,59,0.70
2018,01,22,01,00,2.70
2018,01,22,01,01,3.10
2018,01,22,01,02,3.00
2018,01,22,01,03,0.70
2018,01,22,01,04,0.00
2018,01,22,01,05,0.00
2018,01,22,01,06,0.00
2018,01,22,01,07,0.00
2018,01,22,01,08,0.00
2018,01,22,01,09,0.00
2018,01,22,01,10,0.00
2018,01,22,01,11,0.00
2018,01,22,01,12,0.10
2018,01,22,01,13,2.40
2018,01,22,01,14,3.60
2018,01,22,01,15,4.00
2018,01,22,01,16,1.90
2018,01,22,01,17,0.00
2018,01,22,01,18,2.70
2018,01,22,01,19,4.40
2018,01,22,01,20,4.80
2018,01,22,01,21,4.00
2018,01,22,01,22,3.70
2018,01,22,01,23,3.20
2018,01,22,01,24,3.30
2018,01,22,01,25,5.70
2018,01,22,01,26,4.40
2018,01,22,01,27,4.80
2018,01,22,01,28,4.80
2018,01,22,01,29,3.90
2018,01,22,01,30,2.70
2018,01,22,01,31,3.30
2018,01,22,01,32,4.80
2018,01,22,01,33,4.90
2018,01,22,01,34,5.10
2018,01,22,01,35,4.50
2018,01,22,01,36,3.00
2018,01,22,01,37,2.90
2018,01,22,01,38,3.70
2018,01,22,01,39,1.30
2018,01,22,01,40,0.00
2018,01,22,01,41,0.00
2018,01,22,01,42,0.20
2018,01,22,01,43,0.00
2018,01,22,01,44,0.00
2018,01,22,01,45,0.10
2018,01,22,01,46,1.20
2018,01,22,01,47,0.70
2018,01,22,01,48,0.00
2018,01,22,01,49,1.00
2018,01,22,01,50,0.50
2018,01,22,01,51,1.60
2018,01,22,01,52,2.20
2018,01,22,01,53,2.00
2018,01,22,01,54,0.80
2018,01,22,01,55,0.00
2018,01,22,01,56,0.00
2018,01,22,01,57,0.00
2018,01,22,01,58,0.00
2018,01,22,01,59,0.00
2018,01,22,02,00,0.90
2018,01,22,02,01,0.80
2018,01,22,02,02,0.80
2018,01,22,02,03,2.10
2018,01,22,02,04,2.70
2018,01,22,02,05,1.30
2018,01,22,02,06,0.60
2018,01,22,02,07,0.10
2018,01,22,02,08,0.00
2018,01,22,02,09,0.00
2018,01,22,02,10,0.00
2018,01,22,02,11,0.00
2018,01,22,02,12,0.00
2018,01,22,02,13,0.00
2018,01,22,02,14,0.50
2018,01,22,02,15,2.40
2018,01,22,02,16,3.80
2018,01,22,02,17,4.20
2018,01,22,02,18,4.80
2018,01,22,02,19,5.80
2018,01,22,02,20,5.70
2018,01,22,02,21,4.20
2018,01,22,02,22,4.20
2018,01,22,02,23,3.40
2018,01,22,02,24,1.70
2018,01,22,02,25,0.90
2018,01,22,02,26,0.00
2018,01,22,02,27,2.90
2018,01,22,02,28,1.70
2018,01,22,02,29,0.10
2018,01,22,02,30,0.00
2018,01,22,02,31,0.00
2018,01,22,02,32,0.70
2018,01,22,02,33,3.10
2018,01,22,02,34,3.00
2018,01,22,02,35,4.10
2018,01,22,02,36,5.40
2018,01,22,02,37,2.10
2018,01,22,02,38,0.00
2018,01,22,02,39,2.00
2018,01,22,02,40,2.40
2018,01,22,02,41,3.60
2018,01,22,02,42,4.30
2018,01,22,02,43,3.00
2018,01,22,02,44,3.20
2018,01,22,02,45,4.30
2018,01,22,02,46,4.50
2018,01,22,02,47,3.90
2018,01,22,02,48,2.90
2018,01,22,02,49,1.80
2018,01,22,02,50,0.00
2018,01,22,02,51,0.00
2018,01,22,02,52,0.00
2018,01,22,02,53,0.00
2018,01,22,02,54,0.00
2018,01,22,02,55,0.00
2018,01,22,02,56,0.00
2018,01,22,02,57,0.00
2018,01,22,02,58,0.00
2018,01,22,02,59,0.00
2018,01,22,03,00,0.00
2018,01,22,03,01,0.00
2018,01,22,03,02,0.00
2018,01,22,03,03,0.00
2018,01,22,03,04,0.00
2018,01,22,03,05,0.00
2018,01,22,03,06,0.00
2018,01,22,03,07,0.00
2018,01,22,03,08,0.00
2018,01,22,03,09,0.00
2018,01,22,03,10,0.00
2018,01,22,03,11,0.00
2018,01,22,03,12,0.80
2018,01,22,03,13,2.60
2018,01,22,03,14,2.00
2018,01,22,03,15,3.80
2018,01,22,03,16,4.10
2018,01,22,03,17,5.10
2018,01,22,03,18,4.30
2018,01,22,03,19,2.50
2018,01,22,03,20,2.30
2018,01,22,03,21,1.00
2018,01,22,03,22,0.50
2018,01,22,03,23,0.00
2018,01,22,03,24,0.50
2018,01,22,03,25,1.00
2018,01,22,03,26,1.10
2018,01,22,03,27,3.20
2018,01,22,03,28,4.30
2018,01,22,03,29,4.40
2018,01,22,03,30,1.50
2018,01,22,03,31,3.00
2018,01,22,03,32,2.60
2018,01,22,03,33,4.90
2018,01,22,03,34,6.20
2018,01,22,03,35,6.80
2018,01,22,03,36,6.60
2018,01,22,03,37,8.00
2018,01,22,03,38,3.90
2018,01,22,03,39,1.20
2018,01,22,03,40,0.10
2018,01,22,03,41,0.00
2018,01,22,03,42,0.40
2018,01,22,03,43,1.20
2018,01,22,03,44,0.00
2018,01,22,03,45,0.00
2018,01,22,03,46,0.00
2018,01,22,03,47,0.00
2018,01,22,03,48,0.00
2018,01,22,03,49,0.00
2018,01,22,03,50,2.20
2018,01,22,03,51,2.30
2018,01,22,03,52,3.20
2018,01,22,03,53,3.30
2018,01,22,03,54,1.70
2018,01,22,03,55,2.80
2018,01,22,03,56,3.40
2018,01,22,03,57,1.60
2018,01,22,03,58,1.90
2018,01,22,03,59,2.20
2018,01,22,04,00,2.80
2018,01,22,04,01,2.80
2018,01,22,04,02,3.30
2018,01,22,04,03,2.90
2018,01,22,04,04,2.50
2018,01,22,04,05,3.70
2018,01,22,04,06,3.60
2018,01,22,04,07,3.60
2018,01,22,04,08,4.30
2018,01,22,04,09,5.10
2018,01,22,04,10,4.60
2018,01,22,04,11,5.50
2018,01,22,04,12,5.30
2018,01,22,04,13,4.90
2018,01,22,04,14,4.50
2018,01,22,04,15,4.80
2018,01,22,04,16,4.70
2018,01,22,04,17,4.30
2018,01,22,04,18,4.30
2018,01,22,04,19,4.30
2018,01,22,04,20,5.20
2018,01,22,04,21,5.00
2018,01,22,04,22,5.20
2018,01,22,04,23,4.80
2018,01,22,04,24,4.60
2018,01,22,04,25,3.70
2018,01,22,04,26,3.10
2018,01,22,04,27,2.40
2018,01,22,04,28,1.50
2018,01,22,04,29,1.40
2018,01,22,04,30,4.10
2018,01,22,04,31,5.40
2018,01,22,04,32,3.00
2018,01,22,04,33,2.10
2018,01,22,04,34,2.60
2018,01,22,04,35,6.90
2018,01,22,04,36,4.50
2018,01,22,04,37,3.30
2018,01,22,04,38,3.50
2018,01,22,04,39,4.00
2018,01,22,04,40,2.60
2018,01,22,04,41,2.60
2018,01,22,04,42,1.00
2018,01,22,04,43,3.40
2018,01,22,04,44,4.50
2018,01,22,04,45,4.60
2018,01,22,04,46,4.00
2018,01,22,04,47,3.30
2018,01,22,04,48,2.60
2018,01,22,04,49,4.00
2018,01,22,04,50,3.50
2018,01,22,04,51,3.40
2018,01,22,04,52,3.90
2018,01,22,04,53,2.70
2018,01,22,04,54,4.00
2018,01,22,04,55,3.30
2018,01,22,04,56,3.60
2018,01,22,04,57,3.20
2018,01,22,04,58,2.10
2018,01,22,04,59,2.20
2018,01,22,05,00,3.20
2018,01,22,05,01,4.90
2018,01,22,05,02,5.20
2018,01,22,05,03,4.90
2018,01,22,05,04,4.90
2018,01,22,05,05,4.20
2018,01,22,05,06,2.40
2018,01,22,05,07,2.20
2018,01,22,05,08,2.10
2018,01,22,05,09,1.00
2018,01,22,05,10,1.20
2018,01,22,05,11,3.30
2018,01,22,05,12,2.90
2018,01,22,05,13,1.90
2018,01,22,05,14,2.40
2018,01,22,05,15,0.90
2018,01,22,05,16,3.30
2018,01,22,05,17,2.70
2018,01,22,05,18,2.40
2018,01,22,05,19,3.00
2018,01,22,05,20,3.70
2018,01,22,05,21,1.80
2018,01,22,05,22,3.90
2018,01,22,05,23,2.60
2018,01,22,05,24,4.30
2018,01,22,05,25,4.90
2018,01,22,05,26,5.70
2018,01,22,05,27,4.70
2018,01,22,05,28,5.10
2018,01,22,05,29,4.60
2018,01,22,05,30,4.80
2018,01,22,05,31,3.10
2018,01,22,05,32,4.50
2018,01,22,05,33,4.80
2018,01,22,05,34,5.10
2018,01,22,05,35,4.20
2018,01,22,05,36,2.70
2018,01,22,05,37,1.80
2018,01,22,05,38,2.70
2018,01,22,05,39,2.60
2018,01,22,05,40,2.70
2018,01,22,05,41,2.30
2018,01,22,05,42,2.50
2018,01,22,05,43,2.80
2018,01,22,05,44,3.70
2018,01,22,05,45,3.50
2018,01,22,05,46,2.80
2018,01,22,05,47,3.00
2018,01,22,05,48,3.80
2018,01,22,05,49,6.00
2018,01,22,05,50,4.30
2018,01,22,05,51,3.20
2018,01,22,05,52,1.60
2018,01,22,05,53,1.80
2018,01,22,05,54,2.50
2018,01,22,05,55,1.80
2018,01,22,05,56,1.00
2018,01,22,05,57,0.00
2018,01,22,05,58,0.00
2018,01,22,05,59,0.00
2018,01,22,06,00,0.00
2018,01,22,06,01,0.00
2018,01,22,06,02,0.00
2018,01,22,06,03,0.00
2018,01,22,06,04,0.00
2018,01,22,06,05,0.20
2018,01,22,06,06,2.20
2018,01,22,06,07,1.80
2018,01,22,06,08,0.20
2018,01,22,06,09,0.00
2018,01,22,06,10,0.00
2018,01,22,06,11,0.00
2018,01,22,06,12,0.00
2018,01,22,06,13,0.00
2018,01,22,06,14,0.00
2018,01,22,06,15,0.00
2018,01,22,06,16,0.00
2018,01,22,06,17,0.00
2018,01,22,06,18,0.00
2018,01,22,06,19,0.00
2018,01,22,06,20,0.00
2018,01,22,06,21,0.00
2018,01,22,06,22,0.00
2018,01,22,06,23,0.00
2018,01,22,06,24,0.00
2018,01,22,06,25,0.00
2018,01,22,06,26,0.00
2018,01,22,06,27,0.00
2018,01,22,06,28,0.00
2018,01,22,06,29,0.00
2018,01,22,06,30,0.00
2018,01,22,06,31,0.00
2018,01,22,06,32,0.00
2018,01,22,06,33,0.00
2018,01,22,06,34,0.00
2018,01,22,06,35,0.00
2018,01,22,06,36,0.00
2018,01,22,06,37,0.00
2018,01,22,06,38,0.00
2018,01,22,06,39,0.00
2018,01,22,06,40,0.00
2018,01,22,06,41,0.00
2018,01,22,06,42,0.00
2018,01,22,06,43,0.00
2018,01,22,06,44,0.00
2018,01,22,06,45,0.00
2018,01,22,06,46,0.00
2018,01,22,06,47,0.00
2018,01,22,06,48,0.00
2018,01,22,06,49,1.20
2018,01,22,06,50,0.00
2018,01,22,06,51,0.00
2018,01,22,06,52,0.00
2018,01,22,06,53,0.00
2018,01,22,06,54,0.00
2018,01,22,06,55,0.40
2018,01,22,06,56,1.30
2018,01,22,06,57,0.00
2018,01,22,06,58,0.00
2018,01,22,06,59,0.00
2018,01,22,07,00,0.00
2018,01,22,07,01,0.00
2018,01,22,07,02,0.00
2018,01,22,07,03,0.00
2018,01,22,07,04,0.00
2018,01,22,07,05,0.10
2018,01,22,07,06,1.60
2018,01,22,07,07,0.20
2018,01,22,07,08,0.80
2018,01,22,07,09,1.00
2018,01,22,07,10,0.00
2018,01,22,07,11,0.00
2018,01,22,07,12,0.00
2018,01,22,07,13,0.00
2018,01,22,07,14,0.00
2018,01,22,07,15,0.00
2018,01,22,07,16,0.00
2018,01,22,07,17,0.00
2018,01,22,07,18,0.00
2018,01,22,07,19,0.00
2018,01,22,07,20,0.00
2018,01,22,07,21,0.00
2018,01,22,07,22,0.00
2018,01,22,07,23,0.00
2018,01,22,07,24,0.00
2018,01,22,07,25,0.00
2018,01,22,07,26,0.00
2018,01,22,07,27,0.00
2018,01,22,07,28,0.00
2018,01,22,07,29,0.00
2018,01,22,07,30,0.00
2018,01,22,07,31,0.00
2018,01,22,07,32,0.00
2018,01,22,07,33,0.00
2018,01,22,07,34,0.00
2018,01,22,07,35,0.00
2018,01,22,07,36,0.00
2018,01,22,07,37,0.00
2018,01,22,07,38,0.00
2018,01,22,07,39,0.00
2018,01,22,07,40,0.00
2018,01,22,07,41,0.00
2018,01,22,07,42,0.90
2018,01,22,07,43,3.40
2018,01,22,07,44,4.00
2018,01,22,07,45,3.10
2018,01,22,07,46,1.30
2018,01,22,07,47,0.00
2018,01,22,07,48,0.00
2018,01,22,07,49,0.90
2018,01,22,07,50,5.50
2018,01,22,07,51,4.20
2018,01,22,07,52,2.90
2018,01,22,07,53,0.20
2018,01,22,07,54,0.00
2018,01,22,07,55,0.00
2018,01,22,07,56,0.00
2018,01,22,07,57,0.00
2018,01,22,07,58,0.00
2018,01,22,07,59,0.00
2018,01,22,08,00,0.00
2018,01,22,08,01,0.00
2018,01,22,08,02,0.70
2018,01,22,08,03,0.00
2018,01,22,08,04,0.00
2018,01,22,08,05,2.70
2018,01,22,08,06,3.50
2018,01,22,08,07,0.00
2018,01,22,08,08,0.00
2018,01,22,08,09,0.00
2018,01,22,08,10,0.60
2018,01,22,08,11,2.30
2018,01,22,08,12,3.70
2018,01,22,08,13,2.70
2018,01,22,08,14,1.40
2018,01,22,08,15,2.30
2018,01,22,08,16,3.70
2018,01,22,08,17,3.10
2018,01,22,08,18,2.90
2018,01,22,08,19,2.80
2018,01,22,08,20,1.40
2018,01,22,08,21,0.00
2018,01,22,08,22,0.00
2018,01,22,08,23,0.00
2018,01,22,08,24,0.00
2018,01,22,08,25,0.00
2018,01,22,08,26,0.00
2018,01,22,08,27,0.00
2018,01,22,08,28,0.00
2018,01,22,08,29,0.00
2018,01,22,08,30,0.10
2018,01,22,08,31,0.00
2018,01,22,08,32,0.00
2018,01,22,08,33,0.00
2018,01,22,08,34,0.00
2018,01,22,08,35,0.00
2018,01,22,08,36,0.00
2018,01,22,08,37,0.00
2018,01,22,08,38,0.00
2018,01,22,08,39,1.00
2018,01,22,08,40,3.80
2018,01,22,08,41,2.70
2018,01,22,08,42,0.00
2018,01,22,08,43,0.00
2018,01,22,08,44,0.00
2018,01,22,08,45,0.00
2018,01,22,08,46,1.30
2018,01,22,08,47,3.60
2018,01,22,08,48,2.10
2018,01,22,08,49,0.00
2018,01,22,08,50,0.00
2018,01,22,08,51,0.00
2018,01,22,08,52,0.00
2018,01,22,08,53,1.10
2018,01,22,08,54,3.30
2018,01,22,08,55,0.70
2018,01,22,08,56,0.00
2018,01,22,08,57,0.00
2018,01,22,08,58,0.00
2018,01,22,08,59,0.00
2018,01,22,09,00,0.00
2018,01,22,09,01,0.00
2018,01,22,09,02,0.00
2018,01,22,09,03,0.00
2018,01,22,09,04,0.00
2018,01,22,09,05,0.00
2018,01,22,09,06,0.00
2018,01,22,09,07,0.00
2018,01,22,09,08,0.00
2018,01,22,09,09,0.00
2018,01,22,09,10,0.00
2018,01,22,09,11,0.00
2018,01,22,09,12,0.00
2018,01,22,09,13,0.00
2018,01,22,09,14,0.30
2018,01,22,09,15,2.90
2018,01,22,09,16,4.80
2018,01,22,09,17,4.20
2018,01,22,09,18,1.80
2018,01,22,09,19,0.00
2018,01,22,09,20,0.00
2018,01,22,09,21,0.00
2018,01,22,09,22,0.00
2018,01,22,09,23,0.00
2018,01,22,09,24,0.00
2018,01,22,09,25,0.00
2018,01,22,09,26,0.30
2018,01,22,09,27,2.40
2018,01,22,09,28,1.10
2018,01,22,09,29,0.00
2018,01,22,09,30,2.40
2018,01,22,09,31,2.80
2018,01,22,09,32,0.70
2018,01,22,09,33,0.00
2018,01,22,09,34,0.00
2018,01,22,09,35,0.00
2018,01,22,09,36,0.00
2018,01,22,09,37,0.00
2018,01,22,09,38,0.00
2018,01,22,09,39,0.00
2018,01,22,09,40,0.00
2018,01,22,09,41,0.00
2018,01,22,09,42,0.00
2018,01,22,09,43,0.00
2018,01,22,09,44,0.00
2018,01,22,09,45,0.00
2018,01,22,09,46,0.00
2018,01,22,09,47,0.00
2018,01,22,09,48,0.00
2018,01,22,09,49,0.00
2018,01,22,09,50,0.00
2018,01,22,09,51,0.00
2018,01,22,09,52,0.10
2018,01,22,09,53,4.20
2018,01,22,09,54,1.20
2018,01,22,09,55,0.00
2018,01,22,09,56,0.00
2018,01,22,09,57,0.00
2018,01,22,09,58,0.00
2018,01,22,09,59,0.00
2018,01,22,10,00,0.00
2018,01,22,10,01,0.00
2018,01,22,10,02,0.00
2018,01,22,10,03,0.00
2018,01,22,10,04,0.00
2018,01,22,10,05,0.00
2018,01,22,10,06,0.00
2018,01,22,10,07,0.00
2018,01,22,10,08,0.00
2018,01,22,10,09,0.00
2018,01,22,10,10,0.00
2018,01,22,10,11,0.00
2018,01,22,10,12,0.00
2018,01,22,10,13,0.00
2018,01,22,10,14,0.00
2018,01,22,10,15,0.00
2018,01,22,10,16,0.00
2018,01,22,10,17,0.00
2018,01,22,10,18,0.00
2018,01,22,10,19,0.00
2018,01,22,10,20,0.00
2018,01,22,10,21,0.00
2018,01,22,10,22,0.00
2018,01,22,10,23,0.00
2018,01,22,10,24,0.00
2018,01,22,10,25,0.00
2018,01,22,10,26,0.00
2018,01,22,10,27,0.00
2018,01,22,10,28,0.00
2018,01,22,10,29,0.00
2018,01,22,10,30,0.00
2018,01,22,10,31,0.00
2018,01,22,10,32,0.00
2018,01,22,10,33,0.00
2018,01,22,10,34,0.00
2018,01,22,10,35,0.00
2018,01,22,10,36,0.00
2018,01,22,10,37,0.00
2018,01,22,10,38,0.00
2018,01,22,10,39,0.00
2018,01,22,10,40,0.00
2018,01,22,10,41,0.00
2018,01,22,10,42,0.00
2018,01,22,10,43,0.00
2018,01,22,10,44,0.00
2018,01,22,10,45,0.00
2018,01,22,10,46,0.00
2018,01,22,10,47,0.00
2018,01,22,10,48,0.00
2018,01,22,10,49,0.00
2018,01,22,10,50,0.00
2018,01,22,10,51,0.00
2018,01,22,10,52,0.00
2018,01,22,10,53,0.00
2018,01,22,10,54,0.00
2018,01,22,10,55,0.00
2018,01,22,10,56,1.30
2018,01,22,10,57,0.50
2018,01,22,10,58,0.00
2018,01,22,10,59,0.00
2018,01,22,11,00,0.00
2018,01,22,11,01,0.00
2018,01,22,11,02,0.00
2018,01,22,11,03,0.00
2018,01,22,11,04,0.00
2018,01,22,11,05,0.00
2018,01,22,11,06,0.00
2018,01,22,11,07,0.00
2018,01,22,11,08,0.00
2018,01,22,11,09,0.00
2018,01,22,11,10,0.00
2018,01,22,11,11,0.00
2018,01,22,11,12,0.00
2018,01,22,11,13,0.00
2018,01,22,11,14,0.00
2018,01,22,11,15,0.00
2018,01,22,11,16,0.00
2018,01,22,11,17,0.00
2018,01,22,11,18,0.00
2018,01,22,11,19,0.00
2018,01,22,11,20,0.00
2018,01,22,11,21,0.00
2018,01,22,11,22,0.00
2018,01,22,11,23,0.00
2018,01,22,11,24,0.00
2018,01,22,11,25,0.00
2018,01,22,11,26,0.00
2018,01,22,11,27,0.00
2018,01,22,11,28,0.00
2018,01,22,11,29,0.00
2018,01,22,11,30,0.00
2018,01,22,11,31,0.00
2018,01,22,11,32,0.00
2018,01,22,11,33,0.00
2018,01,22,11,34,0.00
2018,01,22,11,35,0.00
2018,01,22,11,36,0.00
2018,01,22,11,37,0.00
2018,01,22,11,38,0.00
2018,01,22,11,39,0.00
2018,01,22,11,40,0.00
2018,01,22,11,41,0.00
2018,01,22,11,42,0.00
2018,01,22,11,43,2.10
2018,01,22,11,44,3.80
2018,01,22,11,45,2.60
2018,01,22,11,46,2.70
2018,01,22,11,47,2.50
2018,01,22,11,48,3.20
2018,01,22,11,49,2.70
2018,01,22,11,50,3.50
2018,01,22,11,51,3.40
2018,01,22,11,52,2.00
2018,01,22,11,53,2.70
2018,01,22,11,54,2.30
2018,01,22,11,55,2.70
2018,01,22,11,56,1.80
2018,01,22,11,57,2.90
2018,01,22,11,58,2.00
2018,01,22,11,59,2.30
2018,01,22,12,00,1.00
2018,01,22,12,01,0.00
2018,01,22,12,02,0.00
2018,01,22,12,03,0.00
2018,01,22,12,04,0.00
2018,01,22,12,05,0.00
2018,01,22,12,06,0.00
2018,01,22,12,07,0.00
2018,01,22,12,08,0.00
2018,01,22,12,09,0.00
2018,01,22,12,10,0.00
2018,01,22,12,11,0.00
2018,01,22,12,12,0.00
2018,01,22,12,13,0.00
2018,01,22,12,14,0.00
2018,01,22,12,15,0.00
2018,01,22,12,16,0.00
2018,01,22,12,17,0.00
2018,01,22,12,18,0.00
2018,01,22,12,19,0.00
2018,01,22,12,20,0.00
2018,01,22,12,21,0.00
2018,01,22,12,22,0.00
2018,01,22,12,23,0.00
2018,01,22,12,24,0.00
2018,01,22,12,25,0.00
2018,01,22,12,26,0.00
2018,01,22,12,27,0.00
2018,01,22,12,28,0.00
2018,01,22,12,29,0.00
2018,01,22,12,30,0.00
2018,01,22,12,31,0.00
2018,01,22,12,32,0.00
2018,01,22,12,33,0.00
2018,01,22,12,34,0.00
2018,01,22,12,35,0.00
2018,01,22,12,36,0.00
2018,01,22,12,37,0.00
2018,01,22,12,38,0.00
2018,01,22,12,39,0.00
2018,01,22,12,40,0.00
2018,01,22,12,41,0.00
2018,01,22,12,42,0.00
2018,01,22,12,43,0.00
2018,01,22,12,44,0.00
2018,01,22,12,45,0.00
2018,01,22,12,46,0.00
2018,01,22,12,47,0.00
2018,01,22,12,48,0.00
2018,01,22,12,49,0.10
2018,01,22,12,50,1.70
2018,01,22,12,51,0.50
2018,01,22,12,52,1.50
2018,01,22,12,53,0.00
2018,01,22,12,54,0.00
2018,01,22,12,55,0.00
2018,01,22,12,56,2.70
2018,01,22,12,57,3.70
2018,01,22,12,58,3.90
2018,01,22,12,59,3.50
2018,01,22,13,00,0.40
2018,01,22,13,01,0.90
2018,01,22,13,02,1.20
2018,01,22,13,03,1.30
2018,01,22,13,04,0.20
2018,01,22,13,05,0.50
2018,01,22,13,06,0.80
2018,01,22,13,07,2.30
2018,01,22,13,08,1.90
2018,01,22,13,09,0.40
2018,01,22,13,10,0.00
2018,01,22,13,11,4.20
2018,01,22,13,12,2.80
2018,01,22,13,13,1.20
2018,01,22,13,14,0.40
2018,01,22,13,15,0.00
2018,01,22,13,16,0.00
2018,01,22,13,17,0.00
2018,01,22,13,18,0.10
2018,01,22,13,19,1.20
2018,01,22,13,20,1.20
2018,01,22,13,21,1.10
2018,01,22,13,22,0.00
2018,01,22,13,23,1.50
2018,01,22,13,24,0.40
2018,01,22,13,25,2.30
2018,01,22,13,26,2.50
2018,01,22,13,27,3.80
2018,01,22,13,28,3.90
2018,01,22,13,29,0.70
2018,01,22,13,30,1.20
2018,01,22,13,31,2.30
2018,01,22,13,32,1.80
2018,01,22,13,33,3.70
2018,01,22,13,34,4.00
2018,01,22,13,35,4.00
2018,01,22,13,36,5.20
2018,01,22,13,37,2.50
2018,01,22,13,38,2.20
2018,01,22,13,39,3.60
2018,01,22,13,40,1.60
2018,01,22,13,41,0.00
2018,01,22,13,42,0.00
2018,01,22,13,43,0.00
2018,01,22,13,44,0.00
2018,01,22,13,45,0.00
2018,01,22,13,46,0.20
2018,01,22,13,47,2.40
2018,01,22,13,48,2.10
2018,01,22,13,49,2.70
2018,01,22,13,50,3.30
2018,01,22,13,51,2.60
2018,01,22,13,52,2.10
2018,01,22,13,53,0.10
2018,01,22,13,54,1.40
2018,01,22,13,55,0.40
2018,01,22,13,56,3.90
2018,01,22,13,57,2.00
2018,01,22,13,58,2.20
2018,01,22,13,59,4.30
2018,01,22,14,00,5.10
2018,01,22,14,01,4.60
2018,01,22,14,02,1.20
2018,01,22,14,03,4.70
2018,01,22,14,04,4.90
2018,01,22,14,05,2.60
2018,01,22,14,06,5.20
2018,01,22,14,07,6.20
2018,01,22,14,08,9.70
2018,01,22,14,09,5.90
2018,01,22,14,10,6.60
2018,01,22,14,11,5.50
2018,01,22,14,12,4.20
2018,01,22,14,13,1.70
2018,01,22,14,14,3.30
2018,01,22,14,15,2.40
2018,01,22,14,16,1.50
2018,01,22,14,17,3.60
2018,01,22,14,18,3.90
2018,01,22,14,19,3.10
2018,01,22,14,20,3.20
2018,01,22,14,21,5.30
2018,01,22,14,22,5.50
2018,01,22,14,23,3.50
2018,01,22,14,24,4.70
2018,01,22,14,25,2.40
2018,01,22,14,26,2.40
2018,01,22,14,27,1.30
2018,01,22,14,28,3.30
2018,01,22,14,29,1.20
2018,01,22,14,30,3.90
2018,01,22,14,31,0.70
2018,01,22,14,32,4.60
2018,01,22,14,33,1.80
2018,01,22,14,34,2.50
2018,01,22,14,35,3.70
2018,01,22,14,36,4.30
2018,01,22,14,37,8.40
2018,01,22,14,38,8.00
2018,01,22,14,39,6.50
2018,01,22,14,40,7.90
2018,01,22,14,41,7.70
2018,01,22,14,42,8.10
2018,01,22,14,43,5.40
2018,01,22,14,44,10.50
2018,01,22,14,45,6.90
2018,01,22,14,46,11.40
2018,01,22,14,47,8.40
2018,01,22,14,48,8.90
2018,01,22,14,49,7.20
2018,01,22,14,50,8.50
2018,01,22,14,51,8.90
2018,01,22,14,52,5.40
2018,01,22,14,53,7.90
2018,01,22,14,54,8.10
2018,01,22,14,55,3.50
2018,01,22,14,56,3.70
2018,01,22,14,57,0.80
2018,01,22,14,58,3.20
2018,01,22,14,59,5.40
2018,01,22,15,00,3.80
2018,01,22,15,01,5.30
2018,01,22,15,02,4.70
2018,01,22,15,03,4.30
2018,01,22,15,04,4.50
2018,01,22,15,05,3.60
2018,01,22,15,06,2.30
2018,01,22,15,07,2.50
2018,01,22,15,08,2.70
2018,01,22,15,09,6.10
2018,01,22,15,10,3.50
2018,01,22,15,11,2.00
2018,01,22,15,12,3.00
2018,01,22,15,13,4.30
2018,01,22,15,14,4.10
2018,01,22,15,15,5.70
2018,01,22,15,16,2.60
2018,01,22,15,17,2.40
2018,01,22,15,18,6.30
2018,01,22,15,19,7.10
2018,01,22,15,20,3.00
2018,01,22,15,21,2.00
2018,01,22,15,22,3.50
2018,01,22,15,23,4.10
2018,01,22,15,24,5.60
2018,01,22,15,25,6.90
2018,01,22,15,26,5.80
2018,01,22,15,27,5.30
2018,01,22,15,28,4.50
2018,01,22,15,29,5.10
2018,01,22,15,30,6.50
2018,01,22,15,31,4.90
2018,01,22,15,32,1.80
2018,01,22,15,33,3.30
2018,01,22,15,34,3.00
2018,01,22,15,35,4.20
2018,01,22,15,36,4.80
2018,01,22,15,37,3.30
2018,01,22,15,38,3.40
2018,01,22,15,39,4.00
2018,01,22,15,40,3.90
2018,01,22,15,41,10.00
2018,01,22,15,42,7.40
2018,01,22,15,43,4.90
2018,01,22,15,44,6.40
2018,01,22,15,45,5.50
2018,01,22,15,46,4.60
2018,01,22,15,47,4.40
2018,01,22,15,48,4.90
2018,01,22,15,49,4.00
2018,01,22,15,50,2.00
2018,01,22,15,51,0.20
2018,01,22,15,52,1.90
2018,01,22,15,53,1.40
2018,01,22,15,54,3.00
2018,01,22,15,55,5.30
2018,01,22,15,56,3.90
2018,01,22,15,57,2.50
2018,01,22,15,58,3.10
2018,01,22,15,59,2.60
2018,01,22,16,00,2.70
2018,01,22,16,01,2.50
2018,01,22,16,02,2.60
2018,01,22,16,03,2.80
2018,01,22,16,04,2.40
2018,01,22,16,05,0.20
2018,01,22,16,06,0.00
2018,01,22,16,07,0.00
2018,01,22,16,08,1.00
2018,01,22,16,09,1.70
2018,01,22,16,10,0.60
2018,01,22,16,11,0.00
2018,01,22,16,12,0.00
2018,01,22,16,13,0.00
2018,01,22,16,14,0.00
2018,01,22,16,15,0.00
2018,01,22,16,16,0.00
2018,01,22,16,17,0.00
2018,01,22,16,18,0.00
2018,01,22,16,19,0.00
2018,01,22,16,20,0.00
2018,01,22,16,21,0.00
2018,01,22,16,22,0.00
2018,01,22,16,23,0.00
2018,01,22,16,24,0.00
2018,01,22,16,25,0.00
2018,01,22,16,26,0.00
2018,01,22,16,27,0.00
2018,01,22,16,28,0.00
2018,01,22,16,29,0.00
2018,01,22,16,30,0.00
2018,01,22,16,31,0.00
2018,01,22,16,32,0.00
2018,01,22,16,33,0.00
2018,01,22,16,34,0.00
2018,01,22,16,35,0.00
2018,01,22,16,36,0.00
2018,01,22,16,37,0.00
2018,01,22,16,38,0.00
2018,01,22,16,39,0.00
2018,01,22,16,40,0.00
2018,01,22,16,41,0.00
2018,01,22,16,42,0.00
2018,01,22,16,43,0.00
2018,01,22,16,44,0.00
2018,01,22,16,45,0.00
2018,01,22,16,46,0.00
2018,01,22,16,47,0.00
2018,01,22,16,48,0.00
2018,01,22,16,49,0.00
2018,01,22,16,50,0.00
2018,01,22,16,51,0.00
2018,01,22,16,52,0.00
2018,01,22,16,53,0.00
2018,01,22,16,54,0.00
2018,01,22,16,55,0.00
2018,01,22,16,56,0.00
2018,01,22,16,57,0.00
2018,01,22,16,58,0.00
2018,01,22,16,59,0.00
2018,01,22,17,00,0.00
2018,01,22,17,01,0.00
2018,01,22,17,02,0.00
2018,01,22,17,03,0.00
2018,01,22,17,04,0.00
2018,01,22,17,05,0.00
2018,01,22,17,06,0.00
2018,01,22,17,07,0.00
2018,01,22,17,08,0.00
2018,01,22,17,09,0.00
2018,01,22,17,10,0.00
2018,01,22,17,11,0.00
2018,01,22,17,12,0.00
2018,01,22,17,13,0.00
2018,01,22,17,14,0.00
2018,01,22,17,15,0.00
2018,01,22,17,16,0.00
2018,01,22,17,17,0.00
2018,01,22,17,18,0.00
2018,01,22,17,19,0.00
2018,01,22,17,20,0.00
2018,01,22,17,21,0.00
2018,01,22,17,22,0.00
2018,01,22,17,23,0.00
2018,01,22,17,24,0.00
2018,01,22,17,25,0.00
2018,01,22,17,26,0.00
2018,01,22,17,27,0.00
2018,01,22,17,28,0.00
2018,01,22,17,29,0.00
2018,01,22,17,30,0.00
2018,01,22,17,31,0.00
2018,01,22,17,32,0.00
2018,01,22,17,33,0.00
2018,01,22,17,34,0.00
2018,01,22,17,35,0.00
2018,01,22,17,36,0.00
2018,01,22,17,37,0.00
2018,01,22,17,38,0.00
2018,01,22,17,39,0.00
2018,01,22,17,40,0.00
2018,01,22,17,41,0.00
2018,01,22,17,42,0.00
2018,01,22,17,43,0.00
2018,01,22,17,44,0.00
2018,01,22,17,45,0.00
2018,01,22,17,46,0.00
2018,01,22,17,47,0.00
2018,01,22,17,48,0.00
2018,01,22,17,49,0.00
2018,01,22,17,50,0.00
2018,01,22,17,51,0.00
2018,01,22,17,52,0.00
2018,01,22,17,53,0.70
2018,01,22,17,54,4.50
2018,01,22,17,55,3.00
2018,01,22,17,56,0.80
2018,01,22,17,57,0.00
2018,01,22,17,58,0.00
2018,01,22,17,59,0.00
2018,01,22,18,00,1.70
2018,01,22,18,01,2.60
2018,01,22,18,02,0.20
2018,01,22,18,03,0.00
2018,01,22,18,04,0.10
2018,01,22,18,05,2.30
2018,01,22,18,06,3.40